Date String (YYYY-MM-DD hh:mm:ss) UTC,Instrument flags,absolute air pressure of the measurement (hPa),sample flow rate (lpm),inlet stack bypass flow (lpm),air temperature of the measurement (°C),ambient temperature measured by the external sensor (°C),aerosol sample conditioner tube jacket temperature (°C),OPC LED temperature (°C),internal box temperature (°C),relative humidity of the measurement (%),span deviation,mass concentration of particles derived from Lorenz-Mie calculation of OPC scattering (μg/m³),mass concentration of particles derived from Lorenz-Mie calculation of OPC scattering (μg/m³),mass concentration of particles derived from Lorenz-Mie calculation of OPC scattering (μg/m³)
DateTimeUTC,F1_M11,P_M11,Q1_M11,Q2_M11,T1_M11,T2_M11,T3_M11,T4_M11,T5_M11,U1_M11,ZSPAN_M11,X2_M11,X0_M11,X1_M11
2023-07-10 04:00:00,SystemResetWarning,0832.8,5.00,000.00,030.9,027.7,000.0,038.7,031.3,34.0,0000.9,0008.03,0012.99,0007.50
2023-07-10 04:01:00,SystemResetWarning,0832.7,5.01,000.00,030.9,027.9,000.0,038.8,031.4,34.0,0000.0,0008.04,0012.64,0007.52
2023-07-10 04:02:00,SystemResetWarning,0832.7,5.01,000.00,030.9,028.1,000.0,038.8,031.4,34.0,-000.6,0008.00,0012.89,0007.51
2023-07-10 04:03:00,SystemResetWarning,0832.7,4.99,000.00,030.9,027.9,000.0,038.8,031.5,34.0,-001.0,0008.01,0013.54,0007.50
2023-07-10 04:04:00,SystemResetWarning,0832.7,4.99,000.00,031.0,026.4,000.0,038.7,031.4,33.9,-001.6,0008.02,0013.89,0007.51
2023-07-10 04:05:00,SystemResetWarning,0832.7,5.01,000.00,030.9,025.6,000.0,038.7,031.2,34.0,-002.0,0008.01,0013.94,0007.52
2023-07-10 04:06:00,SystemResetWarning,0832.7,5.00,000.00,030.8,025.6,000.0,038.7,030.9,34.1,-002.4,0008.02,0013.92,0007.52
2023-07-10 04:07:00,SystemResetWarning,0832.7,5.00,000.00,030.6,025.9,000.0,038.7,030.9,34.3,-002.7,0008.05,0013.78,0007.52
2023-07-10 04:08:00,SystemResetWarning,0832.7,5.01,000.00,030.6,026.3,000.0,038.8,030.9,34.4,-002.7,0008.07,0013.26,0007.51
2023-07-10 04:09:00,SystemResetWarning,0832.7,5.00,000.00,030.5,026.7,000.0,038.8,031.0,34.5,-002.2,0008.08,0013.38,0007.50
2023-07-10 04:10:00,SystemResetWarning,0832.7,5.00,000.00,030.5,027.1,000.0,038.8,031.1,34.6,-003.2,0008.10,0013.55,0007.50
2023-07-10 04:11:00,SystemResetWarning,0832.7,4.99,000.00,030.5,027.4,000.0,038.8,031.2,34.6,-002.6,0008.11,0013.62,0007.50
2023-07-10 04:12:00,SystemResetWarning,0832.7,4.99,000.00,030.5,027.6,000.0,038.8,031.2,34.7,-000.3,0008.12,0013.64,0007.51
2023-07-10 04:13:00,SystemResetWarning,0832.7,5.00,000.00,030.5,027.8,000.0,038.8,031.3,34.8,-001.3,0008.17,0013.29,0007.53
2023-07-10 04:14:00,SystemResetWarning,0832.7,5.00,000.00,030.5,028.0,000.0,038.8,031.3,34.7,-001.7,0008.18,0012.20,0007.54
2023-07-10 04:15:00,SystemResetWarning,0832.7,5.00,000.00,030.5,028.2,000.0,038.8,031.4,34.6,-002.5,0008.19,0011.79,0007.55
2023-07-10 04:16:00,SystemResetWarning,0832.7,4.99,000.00,030.5,027.7,000.0,038.8,031.4,34.7,-000.9,0008.20,0011.70,0007.58
2023-07-10 04:17:00,SystemResetWarning,0832.7,5.00,000.00,030.5,026.1,000.0,038.6,031.2,34.6,-000.8,0008.23,0011.88,0007.60
2023-07-10 04:18:00,SystemResetWarning,0832.6,5.02,000.00,030.4,025.5,000.0,038.5,031.0,34.7,-002.0,0008.21,0011.97,0007.61
2023-07-10 04:19:00,SystemResetWarning,0832.7,4.97,000.00,030.3,025.6,000.0,038.5,030.8,35.1,-001.9,0008.22,0012.00,0007.62
2023-07-10 04:20:00,SystemResetWarning,0832.6,5.03,000.00,030.3,026.0,000.0,038.5,030.8,35.2,-001.3,0008.22,0012.40,0007.64
2023-07-10 04:21:00,SystemResetWarning,0832.7,5.00,000.00,030.5,026.4,000.0,038.5,031.0,34.7,-001.3,0008.21,0012.21,0007.63
2023-07-10 04:22:00,SystemResetWarning,0832.7,4.99,000.00,030.6,026.8,000.0,038.6,031.1,34.4,-001.2,0008.21,0012.15,0007.65
2023-07-10 04:23:00,SystemResetWarning,0832.7,5.01,000.00,030.7,027.1,000.0,038.6,031.2,34.1,-001.1,0008.23,0012.37,0007.66
2023-07-10 04:24:00,SystemResetWarning,0832.7,4.98,000.00,030.8,027.4,000.0,038.6,031.2,34.1,-001.5,0008.26,0012.78,0007.65
2023-07-10 04:25:00,SystemResetWarning,0832.7,5.00,000.00,030.8,027.6,000.0,038.7,031.3,34.0,-001.4,0008.28,0013.02,0007.66
2023-07-10 04:26:00,SystemResetWarning,0832.7,5.00,000.00,030.8,027.8,000.0,038.8,031.3,33.9,-001.0,0008.30,0013.11,0007.66
2023-07-10 04:27:00,SystemResetWarning,0832.7,5.01,000.00,030.9,028.0,000.0,038.8,031.4,33.9,-000.7,0008.32,0013.47,0007.64
2023-07-10 04:28:00,SystemResetWarning,0832.6,5.00,000.00,030.9,028.2,000.0,038.9,031.4,33.9,-000.2,0008.32,0014.42,0007.62
2023-07-10 04:29:00,SystemResetWarning,0832.7,4.98,000.00,030.9,028.3,000.0,038.9,031.4,34.0,-000.6,0008.35,0014.37,0007.61
2023-07-10 04:30:00,SystemResetWarning,0832.6,5.00,000.00,030.9,027.6,000.0,038.9,031.5,33.8,-000.5,0008.37,0014.62,0007.60
2023-07-10 04:31:00,SystemResetWarning,0832.7,5.00,000.00,030.9,026.0,000.0,038.7,031.3,34.0,-000.6,0008.38,0014.43,0007.59
2023-07-10 04:32:00,SystemResetWarning,0832.6,5.01,000.00,030.8,025.6,000.0,038.7,031.1,34.1,-000.2,0008.38,0014.56,0007.58
2023-07-10 04:33:00,SystemResetWarning,0832.6,5.01,000.00,030.7,025.7,000.0,038.7,030.9,34.4,0000.0,0008.35,0014.50,0007.56
2023-07-10 04:34:00,SystemResetWarning,0832.6,4.99,000.00,030.6,026.1,000.0,038.8,030.9,34.6,0000.0,0008.29,0014.38,0007.54
2023-07-10 04:35:00,SystemResetWarning,0832.7,4.99,000.00,030.5,026.5,000.0,038.8,031.0,34.5,0000.0,0008.25,0014.13,0007.53
2023-07-10 04:36:00,SystemResetWarning,0832.7,5.00,000.00,030.5,026.9,000.0,038.8,031.0,34.4,0000.0,0008.25,0014.01,0007.52
2023-07-10 04:37:00,SystemResetWarning,0832.7,5.01,000.00,030.5,027.2,000.0,038.8,031.1,34.5,0000.4,0008.27,0013.98,0007.52
2023-07-10 04:38:00,SystemResetWarning,0832.6,4.99,000.00,030.4,027.5,000.0,038.8,031.2,34.6,0000.1,0008.26,0013.86,0007.54
2023-07-10 04:39:00,SystemResetWarning,0832.6,4.99,000.00,030.4,027.7,000.0,038.8,031.2,34.6,0000.3,0008.29,0013.03,0007.56
2023-07-10 04:40:00,SystemResetWarning,0832.7,5.00,000.00,030.4,027.9,000.0,038.8,031.3,34.6,0000.5,0008.28,0013.30,0007.58
2023-07-10 04:41:00,SystemResetWarning,0832.6,5.00,000.00,030.4,028.0,000.0,038.8,031.3,34.6,-000.2,0008.27,0013.36,0007.58
2023-07-10 04:42:00,SystemResetWarning,0832.6,5.00,000.00,030.4,028.2,000.0,038.8,031.3,34.5,-000.3,0008.30,0013.30,0007.60
2023-07-10 04:43:00,SystemResetWarning,0832.6,5.00,000.00,030.5,028.3,000.0,038.8,031.4,34.6,-000.1,0008.27,0013.28,0007.62
2023-07-10 04:44:00,SystemResetWarning,0832.6,4.99,000.00,030.5,027.3,000.0,038.7,031.4,34.4,-000.4,0008.28,0013.37,0007.62
2023-07-10 04:45:00,SystemResetWarning,0832.6,5.00,000.00,030.4,025.8,000.0,038.5,031.1,34.5,-000.9,0008.33,0013.60,0007.65
2023-07-10 04:46:00,SystemResetWarning,0832.6,5.00,000.00,030.3,025.5,000.0,038.5,030.9,34.7,-001.1,0008.35,0013.47,0007.68
2023-07-10 04:47:00,SystemResetWarning,0832.5,5.02,000.00,030.2,025.7,000.0,038.5,030.8,35.1,-000.7,0008.35,0013.45,0007.69
2023-07-10 04:48:00,SystemResetWarning,0832.5,4.98,000.00,030.3,026.1,000.0,038.5,030.9,34.6,-000.3,0008.37,0013.52,0007.70
2023-07-10 04:49:00,SystemResetWarning,0832.6,5.01,000.00,030.3,026.5,000.0,038.5,031.0,34.6,-000.5,0008.38,0013.52,0007.72
2023-07-10 04:50:00,SystemResetWarning,0832.5,5.00,000.00,030.4,026.9,000.0,038.5,031.0,34.6,-001.4,0008.43,0013.54,0007.74
2023-07-10 04:51:00,SystemResetWarning,0832.5,4.99,000.00,030.4,027.2,000.0,038.6,031.1,34.4,-001.7,0008.41,0013.08,0007.76
2023-07-10 04:52:00,SystemResetWarning,0832.5,5.00,000.00,030.4,027.4,000.0,038.6,031.1,34.3,-001.8,0008.40,0013.16,0007.78
2023-07-10 04:53:00,SystemResetWarning,0832.5,5.00,000.00,030.4,027.7,000.0,038.6,031.2,34.2,-001.5,0008.39,0013.07,0007.80
2023-07-10 04:54:00,SystemResetWarning,0832.5,5.01,000.00,030.5,027.8,000.0,038.6,031.2,34.2,-001.1,0008.42,0013.06,0007.83
2023-07-10 04:55:00,SystemResetWarning,0832.5,5.01,000.00,030.5,028.0,000.0,038.7,031.3,34.2,-001.1,0008.44,0012.76,0007.85
2023-07-10 04:56:00,SystemResetWarning,0832.5,4.99,000.00,030.5,028.1,000.0,038.7,031.3,34.0,-001.2,0008.47,0013.05,0007.85
2023-07-10 04:57:00,SystemResetWarning,0832.6,4.99,000.00,030.5,028.2,000.0,038.7,031.4,33.8,-000.8,0008.46,0012.82,0007.84
2023-07-10 04:58:00,SystemResetWarning,0832.5,5.01,000.00,030.5,028.3,000.0,038.7,031.4,33.7,-000.6,0008.44,0012.72,0007.84
2023-07-10 04:59:00,SystemResetWarning,0832.5,4.99,000.00,030.5,028.1,000.0,038.7,031.4,33.7,-000.6,0008.43,0012.59,0007.86
